Погода в Эльбарусово

Россия / Чувашская Республика     55°58′08″N   47°47′18″E
темп.,
°C
ветер,
м/с
пор.,
м/с
влажн.,
%
обл.,
%
осадки,
мм/ч
давл.,
гПа
погр.,
м
28 февраля, вс
вс2800:00−18ссз499897 0.0 1007196
03:00−20ссз499994 0.0 1009179
06:00−21сз479985 0.0 1010127
09:00−19ссз579783 0.0 1010244
12:00−14ссз479398 0.0 1011397
15:00−12ссз589199 0.1 1012579
18:00−15ссз3496100 0.1 101459
21:00−18ссз339999 0.1 101730
1 марта, пн
пн100:00−20ссз3310061 0.0 101824
03:00−21ссз2310055 0.0 102020
06:00−22ссз2210071 0.0 102120
09:00−18зсз129559 0.0 1022109
12:00−13з238974 0.0 1021333
15:00−11юз459387 0.0 1021289
18:00−13юз499693 0.0 1018173
21:00−10юз6119496 0.0 1015263
2 марта, вт
вт200:00−7юз71295100 0.5 1011427
03:00−5юз81595100 2.2 1007575
06:00−2зюз81596100 1.6 1002574
09:000з61199100 2.9 1000617
12:000зсз61099100 0.4 998583
15:000зсз599799 0.8 998650
18:00−1зсз489799 0.1 999332
21:00−1сз599899 2.0 1000472
3 марта, ср
ср300:00−3сз5109697 0.5 1001370
03:00−6зсз4109696 0.7 1002278
06:00−7зсз4109679 0.1 1002261
09:00−5сз6109286 0.3 1004646
12:00−4сз71090100 0.2 1005899
15:00−4сз71190100 0.4 1007954
18:00−6сз51288100 0.1 1008523
21:00−9сз5119460 0.1 1010230
4 марта, чт
чт400:00−11зсз479648 0.0 101098
03:00−12зюз459756 0.0 101077
06:00−11юз5119465 0.0 1008207
09:00−6юз8149383 0.1 1004500
12:00−3зюз101692100 0.9 999846
15:00−1зюз111791100 1.3 9971221
18:00−1зюз101793100 0.2 9961102
21:00−1зюз91688100 0.3 997981